Regional Weather Roundup
Issued by NWS

Home | Current Version | Previous Version | Graphics & Text | Print | Product List | Glossary Off
Versions: 1 2 3 4 5 6 7 8 9 10 11 12 13 14 15 16 17 18 19 20 21 22 23 24 25 26 27 28 29 30 31 32 33 34 35 36 37 38 39 40 41 42 43 44 45 46 47 48 49 50

000
ASUS43 KTOP 290008
RWRKS

WEATHER ROUNDUP FOR KANSAS
NATIONAL WEATHER SERVICE GOODLAND KS
700 PM CDT THU MAY 28 2015

NOTE:  "FAIR" INDICATES FEW OR NO CLOUDS BELOW 12,000 FEET WITH NO
SIGNIFICANT WEATHER AND/OR OBSTRUCTIONS TO VISIBILITY.

KSZ001>006-013>018-027>032-041>047-290100-
NORTHWEST KANSAS

CITY           SKY/WX    TMP DP  RH WIND       PRES   REMARKS
GOODLAND       RAIN      58  51  78 VRB3      29.99R
6HR MIN TEMP:  57; 6HR MAX TEMP:  76; 6HR PCP:  0.05;

HAYS           CLOUDY    72  61  68 SE6       29.89S
HILL CITY      LGT RAIN  70  54  56 SW12G21   29.89F
6HR MIN TEMP:  69; 6HR MAX TEMP:  79; 6HR PCP: TRACE;

RUSSELL        PTSUNNY   74  66  76 S10       29.89R
6HR MIN TEMP:  72; 6HR MAX TEMP:  78;

$$

KSZ061>065-074>080-084>089-290100-
SOUTHWEST KANSAS

CITY           SKY/WX    TMP DP  RH WIND       PRES   REMARKS
DODGE CITY     MOSUNNY   75  61  61 SE14      29.92R
6HR MIN TEMP:  75; 6HR MAX TEMP:  80;

ELKHART          N/A     62  51  67 W5          N/A
GARDEN CITY    CLOUDY    62  57  83 N14       29.95R
6HR MIN TEMP:  62; 6HR MAX TEMP:  78;

GREAT BEND     MOSUNNY   75  63  64 S10       29.90R
LIBERAL        CLOUDY    73  61  64 S16       29.91R
PRATT          MOSUNNY   79  61  53 SE13      29.93R
$$

KSZ066>073-081>083-090>101-290100-
SOUTHEAST KANSAS

CITY           SKY/WX    TMP DP  RH WIND       PRES   REMARKS
CHANUTE        MOSUNNY   75  65  70 S12       29.94F
6HR MIN TEMP:  66; 6HR MAX TEMP:  77; 6HR PCP:  0.03;

COFFEYVILLE    MOSUNNY   74  67  78 S6        29.93F
6HR MIN TEMP:  68; 6HR MAX TEMP:  76; 6HR PCP:  0.03;

HUTCHINSON     SUNNY     77  61  57 S9        29.91R
6HR MIN TEMP:  72; 6HR MAX TEMP:  80;

MEDICINE LODGE   N/A     79  64  60 S10G21    29.89R
NEWTON         SUNNY     75  61  60 S7        29.94R
PARSONS        MOSUNNY   75  67  76 VRB3      29.95F
6HR MIN TEMP:  67; 6HR MAX TEMP:  76; 6HR PCP:  0.08;

WICHITA INTL   PTSUNNY   78  62  57 S12       29.91R
6HR MIN TEMP:  69; 6HR MAX TEMP:  80;

WICHITA JABRA  SUNNY     76  62  62 S9        29.92S
6HR MIN TEMP:  73; 6HR MAX TEMP:  78;

WICHITA MCCONL SUNNY     77  64  63 SE10      29.92S
WINFIELD       MOSUNNY   76  66  71 S14G21    29.93S
6HR MIN TEMP:  70; 6HR MAX TEMP:  79;

$$

KSZ007>012-019>026-033>040-048>060-102>105-290100-
NORTHEAST KANSAS

CITY           SKY/WX    TMP DP  RH WIND       PRES   REMARKS
CONCORDIA      SUNNY     75  63  66 S10       29.88F
6HR MIN TEMP:  71; 6HR MAX TEMP:  78;

EMPORIA        SUNNY     75  63  66 S13       29.92F
6HR MIN TEMP:  69; 6HR MAX TEMP:  77;

LAWRENCE       MOSUNNY   73  64  73 SE10      29.94F
6HR MIN TEMP:  70; 6HR MAX TEMP:  73; 6HR PCP: TRACE;

MANHATTAN      SUNNY     77  63  61 S7        29.91F
6HR MIN TEMP:  72; 6HR MAX TEMP:  79; 6HR PCP: TRACE;

MARYSVILLE     MOSUNNY   75  64  69 S9        29.91F
OLATHE IND     PTSUNNY   70  63  78 SE10      29.98S
6HR MIN TEMP:  68; 6HR MAX TEMP:  72; 6HR PCP:  0.06;

OLATHE EXE     CLOUDY    70  63  78 SE8       29.96F
6HR MIN TEMP:  66; 6HR MAX TEMP:  72; 6HR PCP:  0.29;

SALINA         MOSUNNY   77  65  66 S16       29.88F
6HR MIN TEMP:  72; 6HR MAX TEMP:  78; 6HR PCP:  0.01;

TOPEKA BILLARD SUNNY     76  64  66 SE9       29.93F
6HR MIN TEMP:  69; 6HR MAX TEMP:  76; 6HR PCP: TRACE;

TOPEKA FORBES  SUNNY     76  63  64 S9        29.93F
6HR MIN TEMP:  69; 6HR MAX TEMP:  77; 6HR PCP: TRACE;

$$


USA.gov is the U.S. government's official web portal to all federal, state and local government web resources and services.